Location: Frankfurt am Main
(50.1109°N, 8.6821°E)
Time: 21:18:27
(UTC+01:00)

HuskySat-1 - Visible Passes

Search period start: 19 January 2022 00:00
Search period end: 29 January 2022 00:00
Orbit: 440 x 453 km, 51.6° (Epoch: 19 January)

Date Brightness Start Highest point End Pass type
(mag) Time Alt. Az. Time Alt. Az. Time Alt. Az.
19 Jan ? 05:04:39 13° SE 05:04:39 13° SE 05:05:02 10° SE visible
19 Jan ? 06:38:11 14° SW 06:38:23 14° SW 06:40:23 10° S visible
20 Jan ? 06:01:13 15° S 06:01:13 15° S 06:02:14 10° S visible
